EHI
38 32 25 22 21 20 19 16 15 17 21 24 26 24 19 14 12 11 9 7 8 7 5 3 3 7 11 9 6 6 6 4 1 5 12 15 12 7 3 1 0 0 0
32 31 28 25 23 21 18 17 17 19 21 22 23 22 18 13 11 10 8 6 6 6 4 2 1 4 7 7 6 6 5 3 1 4 8 10 8 5 2 0 0 0 0
28 29 30 28 25 22 19 18 18 20 21 20 19 19 16 12 10 9 7 7 6 5 3 1 1 2 3 4 4 4 2 1 1 2 4 5 4 2 0 0 0 0 0
25 26 27 27 25 22 21 20 19 19 19 17 16 15 14 12 10 9 8 8 7 6 4 3 2 3 3 2 2 1 0 0 0 1 2 3 2 1 0 0 0 0 0
22 21 21 23 22 21 20 20 19 18 16 13 12 12 12 9 9 9 8 7 6 4 4 3 3 3 2 1 0 0 0 0 0 1 1 2 1 1 0 0 0 0 0
18 17 16 17 18 19 19 20 20 17 13 10 9 9 7 5 5 6 6 5 4 3 3 3 3 1 1 0 0 0 0 0 0 0 0 1 1 1 0 0 0 0 0
17 17 17 16 17 18 17 17 17 14 11 9 8 8 6 3 1 1 2 3 3 3 3 3 2 1 0 0 0 0 0 0 0 0 0 0 1 1 0 0 0 0 0
20 20 20 20 19 18 16 14 13 12 11 10 9 8 5 2 0 0 0 1 1 2 2 2 2 1 0 0 0 0 0 0 0 0 0 0 1 1 0 0 0 0 0
22 23 22 21 20 19 17 14 12 14 14 12 10 7 4 1 0 0 0 0 0 1 1 1 1 0 0 0 0 0 0 0 0 0 0 0 0 0 0 0 0 0 0
24 25 24 22 21 20 19 16 14 15 15 11 8 4 2 1 0 0 0 0 0 0 0 0 0 0 0 0 0 0 0 0 0 0 0 0 0 0 0 0 0 0 0
27 26 23 20 18 17 18 15 13 12 11 7 3 1 1 0 0 0 0 0 0 0 0 0 0 0 0 0 0 0 0 0 0 0 0 0 0 0 0 0 0 0 0
27 23 19 16 13 13 13 11 9 8 6 2 0 0 0 0 0 0 0 0 0 0 0 0 0 0 0 0 0 0 0 0 0 0 0 0 0 0 0 0 0 0 0
24 21 17 13 11 10 9 6 4 3 2 0 0 0 0 0 0 0 0 0 0 0 0 0 0 0 0 0 0 0 0 0 0 0 0 0 0 0 0 0 0 0 0
19 18 16 13 10 8 5 2 1 1 0 0 0 0 0 0 0 0 0 0 0 0 0 0 0 0 0 0 0 0 0 0 0 0 0 0 0 0 0 0 0 0 0
14 13 13 11 7 3 1 0 0 0 0 0 0 0 0 0 0 0 0 0 0 0 0 0 0 0 0 0 0 0 0 0 0 0 0 0 0 0 0 0 0 0 0
10 8 7 6 3 1 0 0 0 0 0 0 0 0 0 0 0 0 0 0 0 0 0 0 0 0 0 0 0 0 0 0 0 0 0 0 0 0 0 0 0 0 0
6 4 3 2 1 0 0 0 0 0 0 0 0 0 0 0 0 0 0 0 0 0 0 0 0 0 0 0 0 0 0 0 0 0 0 0 0 0 0 0 0 0 0
2 1 1 0 0 0 0 0 0 0 0 0 0 0 0 0 0 0 0 0 0 0 0 0 0 0 0 0 0 0 0 0 0 0 0 0 0 0 0 0 0 0 0
0 0 0 0 0 0 0 0 0 0 0 0 0 0 0 0 0 0 0 0 0 0 0 0 0 0 0 0 0 0 0 0 0 0 0 0 0 0 0 0 0 0 0
0 0 0 0 0 0 0 0 0 0 0 0 0 0 0 0 0 0 0 0 0 0 0 0 0 0 0 0 0 0 0 0 0 0 0 0 0 0 0 0 0 0 0
0 0 0 0 0 0 0 0 0 0 0 0 0 0 0 0 0 0 0 0 0 0 0 0 0 0 0 0 0 0 0 0 0 0 0 0 0 0 0 0 0 0 0
0 0 0 0 0 0 0 0 0 0 0 0 0 0 0 0 0 0 0 0 0 0 0 0 0 0 0 0 0 0 0 0 0 0 0 0 0 0 0 0 0 0 0
0 0 0 0 0 0 0 0 0 0 0 0 0 0 0 0 0 0 0 0 0 0 0 0 0 0 0 0 0 0 0 0 0 0 0 0 0 0 0 0 0 0 0
0 0 0 0 0 0 0 0 0 0 0 0 0 0 0 0 0 0 0 0 0 0 0 0 0 0 0 0 0 0 0 0 0 0 0 0 0 0 0 0 0 0 0
0 0 0 0 0 0 0 0 0 0 0 0 0 0 0 0 0 0 0 0 0 0 0 0 0 0 0 0 0 0 0 0 0 0 0 0 0 0 0 0 0 0 0
0 0 0 0 0 0 0 0 0 0 0 0 0 0 0 0 0 0 0 0 0 0 0 0 0 0 0 0 0 0 0 0 0 0 0 0 0 0 0 0 0 0 0
Wind_Speed
5 4 4 4 5 4 4 4 4 3 3 4 4 4 4 4 4 4 3 3 3 2 2 2 2 1 1 2 1 1 1 1 1 1 2 3 4 4 3 3 4 4 4
4 4 4 4 4 4 4 4 4 4 4 4 4 4 4 4 3 4 4 3 3 3 1 1 1 1 1 2 2 3 2 2 2 2 2 3 3 3 2 2 3 4 4
4 4 4 4 4 4 4 4 4 4 4 4 4 4 3 3 3 3 3 3 3 3 3 3 3 3 3 3 3 3 3 3 3 3 3 3 3 3 3 3 4 3 3
4 4 4 4 4 4 4 4 4 4 4 4 4 4 3 3 4 4 5 5 6 6 7 7 7 6 5 5 4 4 4 5 5 5 4 4 4 4 4 3 3 3 3
4 4 4 4 4 4 5 5 5 5 5 4 4 4 3 3 4 5 6 7 8 9 10 10 10 13 14 10 7 6 6 5 5 5 5 4 4 4 4 3 3 3 3
4 4 5 5 5 5 5 6 6 6 5 5 5 5 4 3 6 10 9 9 9 10 10 9 10 11 16 18 18 17 12 8 6 5 5 5 5 5 4 4 3 3 2
5 5 5 5 6 6 6 6 6 6 6 6 5 6 7 8 11 13 14 10 10 9 9 7 7 9 10 9 14 16 16 17 13 8 8 6 5 4 4 4 3 3 2
6 5 5 6 6 7 7 7 6 6 6 6 7 8 9 10 13 16 16 12 11 10 9 8 8 7 8 9 10 11 10 10 9 8 7 6 5 3 3 3 2 3 2
5 5 5 6 7 7 7 7 6 7 7 7 7 8 9 10 12 14 13 10 10 10 9 9 9 8 11 11 9 9 8 7 9 10 9 7 7 7 6 4 5 4 4
5 5 5 6 6 7 7 7 7 7 8 9 9 9 10 9 10 12 11 8 10 9 9 9 12 11 10 9 7 7 7 4 4 4 4 3 3 4 6 5 4 4 4
5 6 6 6 6 7 7 7 8 9 10 10 11 10 9 10 11 12 10 7 9 9 8 7 7 10 10 10 7 6 5 3 2 3 3 3 3 3 4 4 3 2 2
6 6 6 7 6 7 8 8 8 9 11 10 10 10 8 8 10 12 14 12 10 9 8 6 7 10 10 9 7 6 5 4 3 3 4 4 4 3 3 2 2 1 1
7 7 7 8 7 7 8 8 8 7 8 8 8 9 8 7 9 15 15 15 13 9 8 11 9 9 7 6 7 6 5 3 4 4 4 3 3 2 2 2 2 2 3
7 7 8 9 9 8 6 6 6 6 7 8 8 8 8 7 6 7 8 10 12 10 8 9 8 6 4 5 4 4 3 4 4 4 3 3 3 3 3 3 3 3 3
8 8 9 9 9 9 10 8 7 7 5 8 7 7 8 8 6 7 7 6 6 6 6 4 4 4 3 3 3 3 3 4 4 3 3 3 3 3 3 3 3 3 3
8 8 7 7 8 9 10 11 18 14 16 15 12 11 9 11 12 11 10 10 9 7 5 4 4 4 4 4 3 3 4 3 3 3 3 3 3 3 3 3 3 3 4
9 8 8 8 8 9 9 10 11 13 17 16 15 14 13 13 12 10 9 8 5 4 3 4 4 4 4 3 3 3 4 3 2 3 3 3 3 3 3 3 3 3 4
9 10 9 7 8 8 8 9 9 10 10 8 10 11 11 11 9 8 7 5 3 2 2 4 4 4 3 3 4 3 3 2 2 2 3 3 3 3 3 3 3 4 4
8 7 8 8 8 8 8 8 9 10 9 9 8 7 7 7 6 4 3 2 2 3 4 4 4 4 4 4 3 2 2 2 2 2 2 3 3 3 3 4 4 5 5
8 11 9 8 8 8 8 8 8 9 9 8 8 8 6 5 5 4 3 2 2 3 3 4 4 4 3 3 2 1 1 2 2 2 2 2 3 3 3 4 4 4 4
7 9 10 8 7 8 8 8 8 8 8 8 7 7 7 6 5 5 4 2 2 3 3 3 3 3 3 2 2 1 2 2 2 3 3 3 3 3 3 3 4 5 5
7 7 7 7 7 7 7 7 8 8 9 9 8 7 6 4 4 4 4 3 3 3 3 2 2 3 3 2 2 2 2 2 2 3 3 3 3 4 4 4 4 5 5
7 8 7 7 7 7 7 7 7 7 7 8 8 7 6 4 4 4 3 3 3 3 3 2 2 3 3 2 2 1 2 2 2 3 3 4 4 4 4 4 6 6 6
7 8 8 8 7 7 7 7 7 7 7 7 7 6 5 4 3 4 4 3 3 3 3 2 2 3 4 3 2 3 4 3 3 3 4 5 5 5 5 5 6 7 6
6 7 7 7 7 6 6 6 6 6 6 6 6 6 6 5 4 4 4 3 4 3 3 3 2 3 4 3 4 4 5 4 2 2 3 5 6 6 6 6 6 6 7
6 6 6 5 5 5 5 5 6 6 5 5 5 4 4 5 5 4 4 4 3 3 3 3 4 4 5 4 6 7 7 5 3 1 3 5 6 6 6 6 8 7 7
Wind_Direction
164 167 170 175 180 182 184 184 181 173 161 167 169 175 177 180 177 181 208 179 174 188 211 184 181 236 344 341 13 11 3 44 113 101 82 66 66 72 97 121 128 111 103
149 154 166 168 169 171 175 177 172 162 156 158 160 161 170 167 167 173 195 176 158 168 164 113 132 162 98 359 15 24 37 50 89 105 92 80 67 65 67 82 98 108 111
145 150 152 160 162 164 166 167 157 150 147 142 137 141 153 150 153 165 165 135 118 100 87 74 62 61 56 45 38 32 33 44 70 94 84 67 62 45 37 45 60 57 99
137 135 134 137 139 142 142 138 133 130 126 125 125 125 132 137 137 135 124 106 91 79 72 68 62 61 58 54 52 39 49 56 65 80 78 64 51 30 34 26 32 18 25
125 129 132 125 124 125 122 121 118 116 119 116 111 108 110 126 131 126 116 110 99 87 77 73 72 74 69 66 65 49 49 57 68 77 78 68 48 33 21 7 22 9 16
122 124 122 120 119 118 114 110 109 109 108 106 104 104 102 98 99 109 112 104 99 96 92 85 80 76 78 74 71 66 61 63 66 70 70 68 53 33 12 17 18 6 3
121 119 121 122 120 115 114 109 105 103 102 97 98 97 91 82 91 97 98 98 96 94 93 91 86 79 77 82 76 69 62 61 67 79 76 66 55 26 7 14 12 354 316
128 127 125 124 119 115 111 110 108 105 104 100 94 92 90 86 92 96 96 93 89 87 86 89 90 81 76 84 85 77 67 56 61 72 79 73 67 34 8 2 338 330 337
131 128 128 129 125 123 120 117 114 110 104 99 95 93 93 88 87 95 100 99 96 89 83 77 81 82 76 84 90 92 87 78 74 85 93 94 77 52 32 23 13 10 10
131 130 128 126 124 125 123 120 114 109 106 100 91 87 91 91 86 94 103 108 104 98 88 79 72 76 74 78 87 91 88 83 87 89 93 84 77 58 48 41 27 13 2
114 117 119 120 121 121 118 116 113 110 105 99 95 88 85 86 81 83 94 105 109 106 97 89 78 76 73 69 74 81 86 84 92 88 88 80 64 56 50 44 37 22 10
103 107 110 113 115 116 116 115 115 116 112 107 103 95 84 78 78 81 84 91 100 103 103 100 95 85 76 69 65 58 54 58 71 72 68 58 53 44 28 19 16 346 270
105 105 104 104 99 105 114 119 118 115 114 114 109 104 96 88 84 84 86 90 93 96 99 104 103 96 86 78 74 63 51 47 54 59 56 50 46 28 8 5 356 338 319
112 109 108 107 99 91 89 93 100 108 115 115 115 114 110 103 99 98 100 100 100 101 104 105 101 87 76 73 76 69 60 51 48 47 41 34 24 19 20 15 1 347 346
110 109 106 101 99 90 78 65 76 70 97 115 116 119 121 115 106 108 114 109 109 109 117 121 118 111 106 100 87 72 67 59 47 36 34 29 23 21 15 8 359 348 352
120 114 109 109 105 103 99 81 61 70 74 80 91 103 99 107 112 104 98 99 102 112 115 120 116 111 105 98 92 83 71 55 37 34 35 29 20 13 6 358 359 358 353
113 111 110 112 114 114 113 111 102 77 69 74 84 95 107 114 110 107 103 101 113 121 114 111 104 97 93 90 82 78 75 65 38 28 32 27 14 7 8 359 358 359 345
107 110 113 113 114 115 117 117 117 117 109 93 85 96 108 113 113 111 109 110 134 145 124 108 106 102 92 78 71 67 66 59 41 29 31 23 12 3 1 350 349 350 331
110 113 113 114 114 116 119 119 117 117 116 118 119 110 108 113 113 123 134 157 143 130 119 109 103 100 92 85 79 68 66 61 41 29 33 13 359 354 353 342 340 341 329
106 113 117 120 120 120 121 122 122 123 124 128 132 135 144 152 150 159 179 194 156 116 111 111 104 100 100 98 91 74 69 64 40 27 29 4 354 349 341 335 339 336 330
119 123 124 122 122 124 124 126 129 131 131 134 135 145 158 162 156 160 164 161 132 115 112 113 119 123 123 127 103 67 54 62 47 27 15 354 346 339 330 330 332 331 328
123 130 132 125 125 129 134 137 136 135 139 139 140 153 173 186 163 158 154 153 135 122 119 120 120 114 105 96 87 58 39 50 41 20 357 345 338 330 328 333 336 327 322
136 136 131 128 131 133 138 136 137 140 143 144 148 158 174 188 170 155 150 142 128 122 119 122 113 107 106 105 101 85 51 53 33 11 348 337 330 325 326 329 323 321 326
139 137 134 134 140 147 147 144 148 150 149 150 153 161 169 173 163 150 146 137 133 132 134 140 138 134 130 130 122 100 81 64 23 6 350 326 317 319 322 318 316 320 321
136 134 136 141 146 150 151 150 149 148 151 155 159 164 168 169 164 155 150 149 154 155 165 169 163 150 145 141 124 117 120 115 85 360 323 307 307 308 307 311 313 315 319
141 138 140 143 148 149 147 145 145 148 153 158 160 160 165 168 164 163 162 165 175 175 184 185 174 165 165 156 141 142 155 165 175 227 297 296 296 299 307 308 311 312 314